Wind_Speed
10 10 10 9 9 10 10 10 10 9 8 7 7 6 4 3 2 3 4 6 7 8 10 12 13 13 13 13 12 11 10 8 7 7 6 6 6 6 6 7 7 7 7 7 6 6 5 5 5
10 10 9 9 10 9 10 10 9 9 9 8 7 6 4 3 3 3 4 6 7 8 10 13 14 14 14 14 13 12 11 9 7 6 6 5 5 5 6 6 6 6 6 6 6 5 5 5 5
10 10 9 9 9 7 9 10 9 9 9 9 8 7 6 5 4 5 5 5 7 8 10 13 14 15 15 15 14 13 11 9 8 6 5 5 5 5 5 5 5 5 5 5 5 4 4 4 4
10 10 9 9 8 9 9 10 10 10 9 9 9 8 7 6 6 6 5 5 6 9 10 12 15 16 16 15 14 13 12 10 8 6 5 5 4 4 4 4 5 5 4 4 4 4 4 4 4
9 10 10 9 9 9 10 11 11 11 11 10 10 10 9 8 7 7 7 6 6 9 10 12 15 16 17 17 15 14 13 11 9 7 6 5 4 3 3 3 4 4 3 3 3 3 3 3 3
9 10 8 6 8 10 11 12 12 12 11 11 11 11 11 10 9 8 8 8 8 10 12 13 15 17 18 17 17 16 14 12 11 9 7 6 4 3 2 2 2 3 3 3 3 3 3 2 2
9 8 7 7 8 10 11 11 12 13 12 12 12 11 12 11 10 10 9 8 8 10 12 13 15 17 18 19 18 17 15 13 11 10 8 6 5 3 2 1 1 2 1 1 2 2 1 1 2
9 8 7 7 8 10 11 12 12 12 12 13 13 13 14 13 11 10 9 9 9 10 12 13 15 17 18 19 19 17 16 14 12 10 9 7 5 4 3 2 1 1 1 1 1 1 1 1 1
9 7 6 6 8 9 11 12 13 13 13 14 15 15 15 15 13 12 10 10 10 11 12 14 15 17 18 19 19 18 16 15 13 11 9 8 6 5 4 2 2 1 1 2 2 1 1 1 2
8 6 6 7 8 10 11 13 13 14 14 16 16 17 17 16 15 13 12 12 11 13 14 14 16 18 19 20 20 19 17 15 13 11 10 8 7 5 4 3 2 2 2 2 2 2 2 1 2
8 7 8 8 10 11 11 13 14 14 14 16 17 18 18 18 16 14 13 13 13 14 15 16 17 19 20 21 21 20 18 16 14 12 10 9 7 6 5 3 3 2 2 2 2 2 2 2 2
9 9 9 9 10 11 11 12 13 14 14 16 17 18 19 19 16 14 14 14 13 14 15 17 18 21 21 21 22 21 19 16 14 12 11 9 8 7 5 4 3 2 2 2 2 2 2 2 2
10 10 10 11 11 11 12 13 14 14 15 16 18 19 19 18 16 13 12 13 12 13 15 17 19 21 21 22 23 21 19 16 14 13 11 10 9 7 6 5 4 3 3 3 3 2 2 2 2
11 11 11 11 12 12 12 14 15 15 16 17 19 20 20 18 15 13 12 12 12 13 14 17 20 21 22 22 23 22 20 17 15 13 12 10 9 8 6 5 4 3 3 3 2 2 2 2 2
12 12 12 12 13 13 13 13 16 17 17 18 19 20 20 17 16 14 13 12 11 11 14 17 20 21 22 23 23 22 21 18 16 13 12 10 9 8 7 6 4 3 3 3 3 2 2 2 2
12 11 11 13 13 13 13 13 17 17 17 18 19 19 19 17 15 14 12 10 8 9 13 16 19 21 23 23 23 22 21 18 16 14 13 11 10 8 7 6 5 4 4 3 3 2 2 2 2
12 12 12 14 14 14 13 14 16 16 17 18 19 18 17 16 15 13 11 9 8 8 11 16 18 20 23 23 22 22 21 18 16 15 13 12 11 9 8 7 6 5 5 4 4 3 2 2 2
14 13 13 14 14 14 14 14 16 16 17 18 18 17 16 15 14 13 11 10 8 7 10 15 18 20 22 22 21 21 20 19 17 15 14 13 12 10 9 8 7 6 6 5 4 3 3 2 2
15 14 13 14 14 13 13 14 15 16 16 17 17 17 15 15 14 12 11 10 8 7 9 13 17 19 21 22 21 20 20 19 17 16 15 14 12 11 10 9 8 7 6 5 4 4 3 3 2
15 14 13 14 14 13 13 13 14 15 16 16 17 16 14 14 13 12 11 9 7 8 9 13 16 19 20 21 21 21 21 19 17 17 15 14 13 12 11 10 9 8 7 6 5 5 4 3 3
14 14 14 14 13 13 13 12 14 15 15 15 16 15 13 13 12 11 10 8 7 7 9 12 15 17 19 20 21 21 20 19 17 17 16 15 14 13 12 11 11 9 8 7 6 5 5 4 4
15 15 14 13 11 11 12 11 13 14 13 14 15 15 13 12 12 11 10 9 8 8 9 12 15 16 18 20 20 20 19 19 18 17 16 16 14 13 13 12 12 10 9 8 7 7 6 6 5
16 16 14 12 11 10 11 10 11 13 13 14 14 14 13 12 11 11 10 9 8 7 9 11 14 16 17 19 20 20 20 19 19 17 17 16 16 15 14 13 13 12 11 10 9 8 8 7 6
16 15 14 12 11 11 11 10 9 11 12 13 14 13 12 11 10 10 10 9 7 6 8 10 13 15 17 18 19 20 20 20 19 18 17 17 16 15 14 14 13 13 12 11 11 10 9 9 8
16 15 14 12 11 11 12 9 9 10 12 12 13 12 11 11 10 9 9 8 6 5 6 9 11 13 16 18 19 19 19 19 19 18 17 17 15 15 15 15 14 14 13 13 12 12 11 11 11
18 17 15 13 12 11 13 10 9 10 11 12 12 12 11 11 10 9 8 8 6 4 5 7 10 13 16 17 17 18 17 17 18 17 17 16 15 15 15 15 15 15 15 14 14 14 13 13 13
19 17 16 16 14 12 11 11 10 10 11 11 11 11 11 10 10 8 7 7 6 3 2 4 8 12 14 16 16 16 16 17 17 17 17 16 16 15 15 15 16 16 16 15 16 16 16 16 16
19 18 18 16 14 13 11 11 10 10 10 11 11 11 10 10 9 8 6 5 5 3 2 3 6 10 12 13 14 15 16 17 17 17 17 16 16 16 15 15 16 17 17 18 18 19 19 19 19
19 19 19 17 17 14 12 11 12 10 10 10 11 11 10 9 9 8 6 5 4 3 1 2 3 6 9 11 13 15 16 17 17 17 17 17 17 16 16 16 17 18 19 19 20 21 21 21 22
20 20 19 19 17 16 14 12 12 11 10 11 11 11 10 9 8 7 6 6 5 3 1 1 2 4 8 11 12 14 15 16 17 17 17 16 16 16 16 17 18 19 20 20 21 22 23 24 24
Wind_Direction
23 23 25 25 24 20 8 356 352 346 344 342 341 339 331 309 277 245 231 222 216 214 211 202 197 197 195 197 201 199 191 177 163 147 130 113 100 89 78 73 71 70 73 76 79 83 89 94 96
20 21 22 22 27 13 356 352 348 345 344 344 344 343 331 306 277 257 246 237 228 222 211 203 198 198 197 200 203 203 197 187 174 158 143 124 107 93 81 74 72 71 73 76 81 87 93 98 104
17 18 18 20 23 7 352 348 345 340 342 345 349 345 336 317 292 281 266 249 233 225 215 207 202 199 200 202 204 204 201 195 186 170 156 139 119 101 86 77 74 73 72 73 79 88 93 97 109
12 14 16 19 13 359 352 346 343 339 342 344 347 347 338 322 309 295 282 265 242 229 220 210 206 205 203 204 206 205 203 201 191 180 168 153 132 112 93 80 74 73 73 73 79 88 96 104 113
8 11 14 15 3 355 349 344 343 342 344 344 344 343 338 327 315 302 290 274 257 236 225 217 210 208 207 205 205 205 205 203 197 192 182 172 156 132 108 87 77 72 72 72 79 94 99 111 123
6 9 19 6 353 349 346 346 345 342 340 341 342 342 340 332 322 308 295 280 262 243 229 225 217 212 210 209 207 207 208 205 201 196 190 184 178 162 134 100 82 73 72 76 87 103 107 113 131
360 7 10 359 347 342 342 345 346 346 344 344 342 341 338 331 324 315 300 284 261 244 232 228 220 217 215 210 207 208 208 207 202 198 196 193 193 186 173 151 102 88 83 91 107 117 120 131 153
353 356 357 350 340 333 336 341 345 345 347 344 342 341 337 333 322 315 302 286 264 246 233 230 227 220 219 216 208 208 209 208 204 201 200 200 202 200 197 186 155 135 140 160 159 167 159 155 185
345 349 342 334 329 327 332 338 343 342 344 344 342 340 335 331 321 311 300 286 269 247 236 233 229 223 221 214 209 209 209 208 206 204 203 205 205 202 206 203 195 186 190 202 210 213 203 191 204
337 338 323 326 324 323 328 335 340 341 341 341 339 337 332 329 321 309 298 286 274 252 240 234 227 223 219 215 211 211 210 208 207 207 207 209 212 212 213 215 202 199 199 204 215 221 221 215 211
326 321 318 320 319 320 325 332 335 337 337 335 334 333 330 326 319 310 298 286 273 255 242 233 227 221 218 216 212 211 211 209 208 209 209 211 216 218 220 215 202 201 203 209 223 229 231 234 229
315 315 314 314 316 319 323 327 329 332 332 330 329 330 329 326 319 309 299 284 270 256 242 235 227 222 217 214 212 212 211 208 212 212 213 215 216 217 217 207 202 206 208 212 225 231 236 242 235
310 309 307 309 314 315 318 321 325 326 328 328 330 329 327 325 321 312 301 285 270 251 238 230 222 217 215 214 212 210 209 209 214 216 214 217 215 214 215 207 207 209 211 213 224 234 229 228 220
303 301 305 309 312 313 315 320 323 325 326 327 327 328 326 323 320 311 299 287 270 246 235 226 219 215 211 213 211 208 209 209 214 215 215 214 210 208 210 209 211 216 210 204 207 210 209 215 204
298 299 304 306 308 313 317 317 319 323 324 325 325 326 327 323 322 314 301 295 270 247 234 222 216 212 209 209 207 207 209 208 212 213 213 211 211 209 209 207 211 211 203 196 192 196 198 198 186
293 294 294 299 305 311 316 314 316 320 323 325 326 327 328 325 324 320 310 298 281 255 233 217 211 209 207 206 205 207 207 208 211 211 213 214 213 214 209 205 203 199 193 185 187 187 181 181 188
285 280 282 291 303 309 313 314 316 320 323 325 327 326 328 326 325 322 316 305 288 263 232 215 207 206 205 205 204 205 207 209 210 210 214 217 216 214 208 201 197 193 185 179 181 182 180 176 168
269 273 279 286 297 306 309 313 317 320 323 327 328 327 327 327 325 323 317 305 291 266 233 210 204 202 204 204 203 206 208 210 213 213 215 216 217 215 209 203 195 187 184 182 182 185 191 193 184
273 275 277 284 294 303 308 312 315 320 323 326 329 327 327 329 328 324 316 307 295 263 235 212 205 205 206 206 207 208 210 212 214 215 215 215 216 215 209 204 194 191 192 189 185 188 194 202 203
271 271 275 280 289 299 306 311 315 318 323 327 330 329 329 331 328 324 319 310 289 263 239 218 209 207 208 208 210 208 211 214 217 216 215 215 215 212 207 203 199 198 198 197 195 197 201 207 215
265 266 269 275 287 297 305 317 317 319 319 323 330 332 330 332 332 327 323 313 291 260 233 220 210 208 209 208 207 209 212 215 215 218 217 216 215 213 207 205 204 203 203 204 206 211 214 219 224
258 262 265 272 280 287 300 312 315 320 320 323 329 333 334 333 335 335 328 319 295 262 239 224 213 211 209 207 208 212 214 215 213 212 214 214 213 213 212 211 210 210 212 214 215 220 226 230 234
250 255 260 267 276 286 300 311 316 318 320 324 327 331 332 334 335 333 330 323 301 265 238 226 216 213 210 210 212 213 212 211 209 211 212 212 214 214 214 214 214 216 218 221 222 225 230 234 238
251 254 261 269 278 286 290 299 317 317 319 324 329 333 332 335 336 334 327 321 309 268 240 225 215 214 209 208 210 209 210 209 209 212 213 213 213 212 212 215 217 219 222 225 230 232 235 239 241
247 249 257 266 274 281 282 291 303 309 317 322 327 332 334 336 337 337 334 325 312 277 242 225 219 210 204 205 204 204 207 207 209 212 213 213 214 215 217 219 222 224 227 230 234 238 240 243 245
245 242 242 245 257 270 284 286 293 304 314 321 325 330 335 336 338 335 334 332 320 286 244 225 217 207 201 202 203 204 204 204 208 212 214 215 216 216 218 221 224 227 230 233 237 242 246 250 252
243 241 241 246 254 262 267 278 288 298 309 314 319 326 331 333 336 337 337 336 332 304 249 216 205 201 201 204 203 204 206 208 210 213 214 215 215 218 223 226 229 233 235 238 243 247 250 254 257
241 242 242 243 249 258 271 282 284 290 303 308 311 319 324 332 333 331 332 336 336 322 261 205 200 200 202 202 205 208 210 210 212 215 217 218 221 225 229 233 237 239 242 246 249 251 253 256 259
246 245 245 244 245 251 264 272 276 282 289 300 306 315 317 325 329 328 323 320 327 318 291 187 205 207 205 204 210 213 214 214 215 216 220 224 227 230 234 239 243 245 249 253 254 256 257 260 263
247 247 247 247 254 257 255 262 269 277 278 289 299 307 311 315 320 318 319 318 319 309 274 235 231 221 215 214 215 214 214 216 219 222 224 227 231 235 241 246 249 251 254 257 259 261 263 264 266
Height
5901 5900 5899 5899 5899 5899 5898 5897 5895 5893 5891 5889 5888 5886 5885 5885 5885 5887 5884 5882 5882 5882 5882 5883 5884 5886 5887 5889 5890 5891 5892 5892 5893 5893 5893 5893 5894 5894 5894 5894 5894 5893 5893 5893 5893 5893 5893 5893 5893
5901 5900 5900 5900 5900 5900 5898 5896 5894 5892 5890 5888 5887 5885 5884 5883 5882 5882 5881 5880 5880 5880 5881 5882 5883 5885 5886 5888 5889 5890 5891 5892 5892 5893 5893 5893 5894 5894 5894 5894 5894 5894 5893 5893 5893 5893 5893 5893 5893
5901 5900 5900 5900 5900 5900 5898 5896 5894 5891 5889 5887 5886 5884 5883 5882 5881 5880 5880 5879 5879 5879 5879 5880 5882 5883 5885 5887 5888 5889 5890 5891 5892 5892 5893 5893 5894 5894 5894 5894 5894 5893 5893 5893 5893 5893 5893 5893 5893
5901 5901 5901 5900 5900 5898 5897 5895 5893 5891 5889 5887 5885 5883 5882 5881 5879 5879 5878 5877 5877 5877 5878 5879 5880 5881 5883 5885 5887 5888 5889 5890 5891 5892 5892 5893 5893 5893 5893 5893 5893 5893 5893 5893 5893 5892 5892 5892 5893
5900 5900 5900 5900 5899 5898 5896 5894 5892 5890 5888 5886 5884 5882 5880 5879 5878 5877 5876 5875 5875 5875 5876 5877 5878 5880 5881 5883 5885 5887 5888 5889 5890 5891 5892 5892 5893 5893 5893 5893 5893 5893 5893 5893 5892 5892 5892 5892 5892
5900 5900 5901 5901 5898 5897 5895 5893 5891 5889 5887 5885 5883 5881 5879 5877 5876 5875 5874 5873 5873 5873 5874 5874 5876 5877 5879 5881 5883 5885 5887 5888 5889 5890 5891 5891 5892 5892 5893 5893 5893 5893 5892 5892 5892 5892 5892 5892 5892
5900 5900 5900 5899 5898 5896 5895 5893 5890 5888 5886 5884 5881 5879 5877 5875 5874 5873 5872 5871 5871 5871 5871 5872 5873 5875 5876 5878 5881 5883 5885 5886 5888 5889 5890 5890 5891 5891 5892 5892 5892 5892 5892 5892 5892 5892 5891 5891 5891
5899 5899 5898 5898 5897 5896 5894 5891 5889 5887 5885 5883 5880 5878 5875 5874 5871 5870 5869 5869 5868 5868 5869 5869 5870 5872 5874 5876 5878 5881 5883 5885 5886 5887 5888 5889 5890 5890 5891 5891 5891 5891 5892 5892 5891 5891 5891 5891 5891
5897 5899 5898 5897 5896 5894 5892 5890 5888 5886 5883 5881 5878 5876 5873 5871 5869 5867 5866 5866 5865 5866 5866 5867 5868 5869 5871 5873 5876 5878 5881 5883 5884 5885 5886 5887 5888 5889 5890 5890 5890 5891 5891 5891 5891 5891 5891 5891 5891
5897 5897 5897 5895 5894 5892 5890 5888 5886 5884 5881 5879 5876 5873 5870 5868 5866 5864 5863 5862 5862 5862 5863 5864 5865 5866 5868 5871 5873 5876 5878 5880 5882 5884 5885 5886 5887 5888 5888 5889 5889 5889 5890 5890 5890 5890 5890 5890 5890
5895 5895 5894 5893 5892 5890 5889 5887 5885 5882 5880 5877 5874 5871 5868 5865 5862 5860 5859 5858 5858 5858 5859 5860 5862 5863 5866 5868 5870 5873 5876 5878 5880 5882 5883 5885 5885 5886 5887 5888 5888 5888 5889 5889 5889 5889 5889 5889 5889
5894 5893 5892 5891 5890 5888 5887 5885 5883 5881 5878 5875 5872 5868 5865 5861 5858 5856 5855 5854 5854 5854 5855 5856 5858 5860 5862 5865 5868 5871 5874 5876 5878 5880 5882 5883 5884 5885 5886 5887 5887 5887 5888 5888 5888 5888 5889 5889 5889
5892 5891 5890 5889 5888 5887 5885 5884 5882 5879 5876 5873 5869 5865 5862 5858 5855 5853 5851 5850 5849 5849 5850 5852 5854 5857 5860 5863 5866 5869 5872 5874 5876 5878 5880 5881 5883 5884 5885 5885 5886 5886 5887 5887 5887 5888 5888 5888 5888
5890 5889 5888 5887 5886 5885 5884 5882 5880 5877 5874 5870 5867 5863 5859 5855 5852 5850 5848 5846 5845 5845 5846 5848 5850 5853 5857 5860 5863 5867 5869 5872 5875 5877 5879 5880 5881 5882 5883 5884 5885 5885 5886 5886 5887 5887 5887 5887 5887
5887 5887 5887 5885 5884 5883 5882 5881 5878 5875 5872 5868 5864 5860 5856 5853 5850 5846 5844 5843 5842 5842 5843 5845 5847 5850 5854 5857 5861 5864 5867 5870 5873 5875 5877 5879 5880 5881 5882 5883 5884 5885 5885 5886 5886 5887 5887 5887 5887
5885 5885 5886 5884 5882 5881 5882 5880 5876 5873 5870 5866 5862 5858 5854 5851 5848 5845 5842 5841 5840 5839 5839 5841 5844 5848 5851 5855 5858 5862 5865 5868 5871 5873 5875 5877 5879 5880 5881 5882 5883 5884 5885 5885 5886 5886 5887 5887 5887
5883 5884 5883 5882 5880 5879 5879 5877 5874 5871 5868 5864 5860 5856 5853 5849 5846 5843 5841 5839 5839 5838 5838 5839 5842 5845 5849 5853 5856 5860 5863 5866 5869 5872 5874 5876 5878 5879 5880 5881 5882 5883 5884 5885 5886 5886 5887 5887 5887
5881 5881 5880 5879 5878 5877 5876 5874 5872 5868 5865 5862 5858 5854 5851 5847 5844 5842 5840 5838 5837 5837 5837 5838 5841 5844 5847 5850 5854 5858 5861 5864 5867 5870 5872 5874 5876 5877 5879 5880 5881 5883 5884 5885 5885 5886 5886 5887 5887
5877 5877 5877 5877 5875 5875 5874 5872 5869 5866 5863 5860 5856 5852 5849 5846 5843 5840 5839 5837 5836 5835 5836 5837 5840 5842 5845 5849 5852 5856 5859 5862 5865 5868 5870 5873 5875 5876 5878 5879 5881 5882 5883 5884 5885 5886 5886 5887 5887
5873 5873 5874 5874 5872 5872 5871 5869 5867 5864 5861 5858 5854 5851 5847 5844 5842 5839 5837 5835 5834 5834 5834 5836 5838 5841 5844 5847 5850 5853 5857 5860 5863 5866 5868 5871 5873 5875 5876 5878 5880 5881 5883 5884 5884 5885 5886 5886 5887
5869 5870 5870 5870 5870 5869 5869 5868 5865 5862 5859 5856 5853 5849 5846 5843 5841 5838 5836 5834 5833 5833 5833 5834 5836 5839 5842 5845 5848 5851 5854 5857 5861 5864 5866 5869 5871 5873 5875 5877 5879 5880 5882 5883 5884 5885 5885 5886 5886
5865 5866 5866 5867 5867 5868 5867 5866 5864 5860 5857 5854 5851 5848 5844 5842 5839 5837 5834 5833 5832 5831 5831 5833 5834 5837 5839 5842 5846 5849 5852 5855 5858 5861 5864 5867 5869 5871 5873 5875 5877 5879 5881 5882 5883 5884 5885 5885 5885
5861 5862 5863 5863 5864 5864 5864 5863 5863 5858 5855 5852 5849 5846 5843 5841 5838 5836 5833 5832 5830 5829 5829 5830 5832 5835 5837 5840 5843 5846 5849 5853 5856 5859 5862 5865 5867 5869 5871 5874 5876 5877 5879 5880 5882 5882 5883 5884 5884
5857 5858 5859 5860 5862 5863 5862 5860 5860 5857 5853 5850 5847 5844 5842 5839 5837 5834 5832 5830 5828 5828 5828 5828 5830 5832 5834 5837 5840 5843 5847 5850 5854 5857 5860 5863 5865 5867 5869 5872 5874 5875 5877 5878 5880 5881 5881 5882 5882
5853 5856 5858 5859 5860 5861 5858 5857 5857 5854 5851 5848 5846 5843 5840 5838 5836 5833 5831 5830 5828 5827 5826 5827 5828 5829 5832 5835 5838 5841 5845 5848 5852 5855 5858 5860 5863 5865 5868 5870 5871 5873 5875 5876 5877 5878 5879 5879 5880
5849 5852 5855 5857 5859 5859 5855 5854 5854 5851 5848 5846 5844 5842 5839 5837 5835 5832 5830 5829 5827 5826 5825 5825 5826 5827 5830 5833 5836 5840 5843 5846 5850 5853 5855 5858 5860 5863 5865 5867 5869 5870 5872 5873 5874 5875 5876 5876 5877
5844 5846 5850 5852 5852 5853 5854 5852 5850 5848 5846 5844 5842 5840 5838 5836 5834 5832 5830 5828 5827 5826 5825 5825 5825 5827 5829 5832 5835 5838 5841 5845 5848 5850 5853 5855 5858 5860 5862 5864 5866 5867 5868 5869 5870 5871 5872 5873 5873
5841 5842 5844 5847 5848 5850 5851 5850 5849 5846 5844 5842 5840 5839 5837 5835 5833 5831 5829 5828 5827 5826 5825 5825 5826 5827 5829 5831 5834 5837 5840 5843 5846 5848 5851 5853 5856 5858 5860 5861 5863 5864 5865 5866 5866 5867 5868 5868 5869
5836 5838 5839 5842 5844 5846 5847 5849 5845 5843 5841 5840 5839 5837 5835 5834 5832 5831 5829 5828 5827 5827 5826 5826 5827 5828 5829 5831 5833 5836 5838 5841 5843 5846 5848 5851 5853 5855 5857 5858 5859 5860 5861 5861 5862 5862 5863 5863 5863
5832 5834 5836 5838 5839 5839 5841 5846 5841 5840 5838 5837 5836 5835 5833 5832 5831 5830 5829 5828 5827 5827 5827 5827 5827 5828 5829 5830 5832 5834 5836 5838 5841 5843 5845 5848 5850 5852 5853 5854 5855 5856 5856 5857 5857 5857 5858 5858 5858